TimeEDT,TemperatureF,Dew PointF,Humidity,Sea Level PressureIn,VisibilityMPH,Wind Direction,Wind SpeedMPH,Gust SpeedMPH,PrecipitationIn,Events,Conditions,WindDirDegrees,DateUTC
12:54 AM,36.0,27.0,70,30.10,10.0,West,3.5,-,N/A,,Clear,280,2013-10-28 04:54:00
1:54 AM,36.0,28.0,73,30.12,10.0,Calm,Calm,-,N/A,,Clear,0,2013-10-28 05:54:00
2:54 AM,35.1,28.9,78,30.12,10.0,Calm,Calm,-,N/A,,Clear,0,2013-10-28 06:54:00
3:54 AM,33.1,27.0,78,30.12,10.0,Calm,Calm,-,N/A,,Clear,0,2013-10-28 07:54:00
4:54 AM,36.0,28.0,73,30.12,10.0,Calm,Calm,-,N/A,,Clear,0,2013-10-28 08:54:00
5:54 AM,35.1,28.0,76,30.14,10.0,Calm,Calm,-,N/A,,Clear,0,2013-10-28 09:54:00
6:54 AM,34.0,27.0,75,30.17,10.0,Calm,Calm,-,N/A,,Clear,0,2013-10-28 10:54:00
7:54 AM,34.0,27.0,75,30.19,10.0,Calm,Calm,-,N/A,,Clear,0,2013-10-28 11:54:00
8:54 AM,33.1,28.0,82,30.23,10.0,Calm,Calm,-,N/A,,Clear,0,2013-10-28 12:54:00
9:54 AM,39.9,30.9,70,30.26,10.0,WSW,3.5,-,N/A,,Clear,240,2013-10-28 13:54:00
10:54 AM,46.9,34.0,61,30.27,10.0,Calm,Calm,-,N/A,,Clear,0,2013-10-28 14:54:00
11:54 AM,51.1,36.0,56,30.28,10.0,East,8.1,-,N/A,,Clear,90,2013-10-28 15:54:00
12:54 PM,54.0,37.0,53,30.29,10.0,East,4.6,-,N/A,,Clear,90,2013-10-28 16:54:00
1:54 PM,55.0,36.0,49,30.29,10.0,East,3.5,-,N/A,,Clear,100,2013-10-28 17:54:00
2:54 PM,57.0,35.1,44,30.27,10.0,East,3.5,-,N/A,,Clear,80,2013-10-28 18:54:00
3:54 PM,57.9,35.1,42,30.27,10.0,Calm,Calm,-,N/A,,Clear,0,2013-10-28 19:54:00
4:54 PM,57.0,35.1,44,30.28,10.0,Calm,Calm,-,N/A,,Clear,0,2013-10-28 20:54:00
5:54 PM,55.9,35.1,45,30.28,10.0,NE,3.5,-,N/A,,Clear,50,2013-10-28 21:54:00
6:54 PM,53.1,35.1,50,30.30,10.0,Calm,Calm,-,N/A,,Clear,0,2013-10-28 22:54:00
7:54 PM,50.0,35.1,57,30.31,10.0,Calm,Calm,-,N/A,,Clear,0,2013-10-28 23:54:00
8:54 PM,46.9,36.0,66,30.34,10.0,NE,5.8,-,N/A,,Clear,40,2013-10-29 00:54:00
9:54 PM,43.0,36.0,76,30.35,10.0,NE,6.9,-,N/A,,Clear,40,2013-10-29 01:54:00
10:54 PM,41.0,34.0,76,30.37,10.0,ENE,4.6,-,N/A,,Clear,60,2013-10-29 02:54:00
11:54 PM,39.9,33.1,77,30.38,10.0,NE,3.5,-,N/A,,Clear,50,2013-10-29 03:54:00